WetterOnline ( https://www.wetteronline.de )

Wetter aktuell Garmisch-Partenkirchen

Aktuelles Wetter: Garmisch-Partenkirchen (719m)

6-stündlich | Neueste Meldungen
Ortszeit Temperatur Wetter
Sa, 22.01. 19:00 0.2° C leichter Schneefall
Sa, 22.01. 13:00 0.0° C leichter Schneefall
Sa, 22.01. 7:00 -1.7° C leichter Schneefall
Sa, 22.01. 1:00 -2.3° C bewölkt
Fr, 21.01. 19:00 -2.1° C bedeckt
Fr, 21.01. 13:00 -1.4° C bedeckt
Fr, 21.01. 7:00 -3.5° C Schneefall
Fr, 21.01. 1:00 -0.8° C leichter Schneefall
Ortszeit Temperatur Wetter
Sa, 22.01. 19:30 0.1° C Sprühregen
Sa, 22.01. 19:20 0.1° C Sprühregen
Sa, 22.01. 19:10 0.2° C leichter Schneefall
Sa, 22.01. 19:00 0.2° C leichter Schneefall
Sa, 22.01. 18:50 0.2° C leichter Schneefall
Sa, 22.01. 18:40 0.2° C leichter Schneefall
Sa, 22.01. 18:30 0.2° C Eiskörner
Sa, 22.01. 18:00 0.2° C Sprühregen
Sa, 22.01. 17:30 0.2° C leichter Schneefall
Sa, 22.01. 17:00 0.3° C leichter Schneefall
Sa, 22.01. 16:30 0.3° C leichter Schneefall
Ortszeit Relative Feuchte Sichtweite
Sa, 22.01. 19:00 95% 4.8 km
Sa, 22.01. 13:00 88% 11 km
Sa, 22.01. 7:00 72% 30 km
Sa, 22.01. 1:00 68% >70 km
Fr, 21.01. 19:00 62% >70 km
Fr, 21.01. 13:00 63% 65 km
Fr, 21.01. 7:00 87% 1.3 km
Fr, 21.01. 1:00 61% 22 km
Ortszeit Relative Feuchte Sichtweite
Sa, 22.01. 19:30 95% 2.6 km
Sa, 22.01. 19:20 95% -
Sa, 22.01. 19:10 94% -
Sa, 22.01. 19:00 95% 4.8 km
Sa, 22.01. 18:50 95% -
Sa, 22.01. 18:40 94% -
Sa, 22.01. 18:30 94% 4.3 km
Sa, 22.01. 18:00 94% 4.4 km
Sa, 22.01. 17:30 94% 4.3 km
Sa, 22.01. 17:00 93% 4.2 km
Sa, 22.01. 16:30 92% 6 km
Ortszeit Niederschlagsmenge Niederschlagsart
Sa, 22.01. 19:00 4 l/m2 in 12 Std. Schnee, Sprühregen
Sa, 22.01. 13:00 2 l/m2 in 6 Std. Schnee
Sa, 22.01. 7:00 0.1 l/m2 in 12 Std. Schnee
Sa, 22.01. 1:00 0.0 l/m2 in 6 Std. -
Fr, 21.01. 19:00 2 l/m2 in 12 Std. Schnee
Fr, 21.01. 13:00 2 l/m2 in 6 Std. Schnee
Fr, 21.01. 7:00 1 l/m2 in 12 Std. Schnee
Fr, 21.01. 1:00 0.2 l/m2 in 6 Std. Schnee, Niederschlag
Ortszeit Niederschlagsmenge Niederschlagsart
Sa, 22.01. 19:30 0.1 l/m2 in 1 Std. -
Sa, 22.01. 19:20 keine Meldung -
Sa, 22.01. 19:10 keine Meldung -
Sa, 22.01. 19:00 0.3 l/m2 in 1 Std. Schnee, Sprühregen
Sa, 22.01. 18:50 keine Meldung -
Sa, 22.01. 18:40 keine Meldung -
Sa, 22.01. 18:30 0.2 l/m2 in 1 Std. -
Sa, 22.01. 18:00 0.1 l/m2 in 1 Std. Schnee, Sprühregen
Sa, 22.01. 17:30 0.1 l/m2 in 1 Std. -
Sa, 22.01. 17:00 0.4 l/m2 in 1 Std. Schnee, Sprühregen
Sa, 22.01. 16:30 0.3 l/m2 in 1 Std. -
Ortszeit Stärke Spitze Richtung
km/h Bft. km/h Grad Sektor
Sa, 22.01. 19:00 2 1 11 80° O
Sa, 22.01. 13:00 6 1 11 60° NO
Sa, 22.01. 7:00 4 1 11 70° O
Sa, 22.01. 1:00 0 0 18 - -
Fr, 21.01. 19:00 7 2 20 180° S
Fr, 21.01. 13:00 4 1 14 90° O
Fr, 21.01. 7:00 7 2 29 80° O
Fr, 21.01. 1:00 4 1 25 300° NW
Ortszeit Stärke Spitze Richtung
km/h Bft. km/h Grad Sektor
Sa, 22.01. 19:30 0 0 4 - -
Sa, 22.01. 19:20 0 0 - 230° SW
Sa, 22.01. 19:10 0 0 - 30° NO
Sa, 22.01. 19:00 2 1 6 80° O
Sa, 22.01. 18:50 2 1 - 80° O
Sa, 22.01. 18:40 2 1 - 360° N
Sa, 22.01. 18:30 4 1 4 10° N
Sa, 22.01. 18:00 2 1 6 60° NO
Sa, 22.01. 17:30 4 1 7 40° NO
Sa, 22.01. 17:00 4 1 4 40° NO
Sa, 22.01. 16:30 0 0 4 - -
Ortszeit Untergrenze Bedeckung Gattung
total tief tief mittel hoch
Sa, 22.01. 19:00 60 m 7/8 7/8 - - -
Sa, 22.01. 13:00 210 m 8/8 8/8 - - -
Sa, 22.01. 7:00 1020 m 8/8 8/8 - - -
Sa, 22.01. 1:00 1500 m 7/8 8/8 - - -
Fr, 21.01. 19:00 1500 m 8/8 8/8 - - -
Fr, 21.01. 13:00 750 m 8/8 8/8 - - -
Fr, 21.01. 7:00 210 m 7/8 8/8 - - -
Fr, 21.01. 1:00 750 m 7/8 7/8 - - -
Ortszeit Bedeckungsgrad in Achtel und Wolkenuntergrenze
Sa, 22.01. 19:30 2(90m) 7(240m) 7(1290m)
Sa, 22.01. 19:20 2(90m) 7(240m) 7(1290m)
Sa, 22.01. 19:10 1(60m) 7(480m) 8(1320m)
Sa, 22.01. 19:00 1(60m) 5(300m) 7(1350m)
Sa, 22.01. 18:50 1(60m) 5(300m) 7(1350m)
Sa, 22.01. 18:40 2(60m) 6(480m) 8(1350m)
Sa, 22.01. 18:30 2(60m) 6(480m) 8(1260m)
Sa, 22.01. 18:00 4(60m) 7(210m) 8(1290m)
Sa, 22.01. 17:30 6(60m) 7(210m) 8(1320m)
Sa, 22.01. 17:00 1(60m) 6(330m) 7(1410m)
Sa, 22.01. 16:30 5(390m) 6(1290m) 8(1500m)
Ortszeit Luftdruck NN (hPa) Tendenz (hPa in 3 Std.)
Sa, 22.01. 19:00 1036 + 1,1
Sa, 22.01. 13:00 1034 0,0
Sa, 22.01. 7:00 1034 + 0,2
Sa, 22.01. 1:00 1035 - 0,5
Fr, 21.01. 19:00 1035 + 0,2
Fr, 21.01. 13:00 1034 + 0,3
Fr, 21.01. 7:00 1033 + 0,6
Fr, 21.01. 1:00 1031 + 1,1
Ortszeit Luftdruck NN (hPa) Tendenz (hPa in 3 Std.)
Sa, 22.01. 19:30 1036 + 1,3
Sa, 22.01. 19:20 1036 keine Meldung
Sa, 22.01. 19:10 1036 keine Meldung
Sa, 22.01. 19:00 1036 + 1,1
Sa, 22.01. 18:50 1036 keine Meldung
Sa, 22.01. 18:40 1036 keine Meldung
Sa, 22.01. 18:30 1035 + 1,0
Sa, 22.01. 18:00 1035 + 0,5
Sa, 22.01. 17:30 1035 + 0,5
Sa, 22.01. 17:00 1034 + 0,3
Sa, 22.01. 16:30 1034 + 0,2
Ortszeit Schneehöhe (cm)
Sa, 22.01. 19:00 7
Sa, 22.01. 13:00 7
Sa, 22.01. 7:00 3
Sa, 22.01. 1:00 3
Fr, 21.01. 19:00 4
Fr, 21.01. 13:00 6
Fr, 21.01. 7:00 1
Fr, 21.01. 1:00 0
Ortszeit Schneehöhe (cm)
Sa, 22.01. 19:30 7
Sa, 22.01. 19:20 7
Sa, 22.01. 19:10 7
Sa, 22.01. 19:00 7
Sa, 22.01. 18:50 7
Sa, 22.01. 18:40 7
Sa, 22.01. 18:30 7
Sa, 22.01. 18:00 7
Sa, 22.01. 17:30 7
Sa, 22.01. 17:00 8
Sa, 22.01. 16:30 8
Link zu dieser Seite / Seite empfehlen

Das Wetter in ...